Flag for Germany Past Weather in Langenfeld (Rheinland), North Rhine-Westphalia, Germany — Yesterday and Last 2 Weeks

Now
59 °F

Partly cloudy.


Feels Like: 58 °F
Forecast: 59 / 68 °F
Wind: 6 mph from Southwest

Location: Duesseldorf

Current Time: Jun 29, 2016 at 5:46:33 AM

Latest Report: Jun 29, 2016 at 5:20 AM


Visibility: N/A

Pressure: 29.83 "Hg

Humidity: 94%

Dew Point: 57 °F

Location of Langenfeld (Rheinland)Location

Past Weather in Langenfeld (Rheinland) — Graph

°F

Langenfeld (Rheinland) Temperature Yesterday

Maximum temperature yesterday: 73 °F (at 4:20 PM)
Minimum temperature yesterday: 55 °F (at 12:20 AM)
Average temperature yesterday: 64 °F

High & Low Weather Summary for the Past Weeks

 TemperatureHumidityPressure
High91 °F (Jun 23, 3:20 PM)100% (Jun 14, 4:20 AM)30.27 "Hg (Jun 14, 4:20 AM)
Low50 °F (Jun 16, 2:20 AM)44% (Jun 23, 5:20 PM)29.45 "Hg (Jun 14, 6:20 PM)
Average63 °F84%29.94 "Hg
* Reported Jun 14 4:20 AM — Jun 29 4:20 AM, Langenfeld (Rheinland), Weather by CustomWeather, © 2016

Note: Actual official high and low records may vary slightly from our data, if they occured in-between our weather recording intervals... More about our weather records

Advertising

Langenfeld (Rheinland) Weather History for the Previous 24 Hours

Scroll right to see more
 ConditionsComfort  
Time TempWeatherWind HumidityBarometerVisibility
4:20 AM
Wed, Jun 29
61 °FPartly cloudy.7 mph94%29.83 "HgN/A
3:50 AM61 °FPartly cloudy.9 mph94%29.83 "HgN/A
3:20 AM61 °FSprinkles. Partly cloudy.14 mph100%29.83 "HgN/A
2:50 AM61 °FSprinkles. Partly cloudy.13 mph94%29.83 "HgN/A
2:20 AM61 °FPartly cloudy.8 mph100%29.83 "HgN/A
1:50 AM61 °FSprinkles. Passing clouds.8 mph100%29.83 "HgN/A
1:20 AM61 °FRain showers. Passing clouds.13 mph100%29.83 "HgN/A
12:50 AM63 °FSprinkles. Passing clouds.6 mph88%29.83 "HgN/A
12:20 AM63 °FLight rain. Partly cloudy.8 mph83%29.86 "HgN/A
11:50 PM
Tue, Jun 28
66 °FPartly cloudy.8 mph68%29.86 "HgN/A
11:20 PM64 °FClear.6 mph73%29.86 "Hg10 mi
10:50 PM66 °FSunny.6 mph68%29.89 "Hg10 mi
10:20 PM64 °FSunny.6 mph73%29.89 "Hg10 mi
9:50 PM66 °FSunny.6 mph68%29.89 "Hg10 mi
9:20 PM68 °FSunny.6 mph64%29.89 "Hg10 mi
8:50 PM68 °FSunny.6 mph60%29.89 "Hg10 mi
8:20 PM70 °FPartly sunny.9 mph57%29.89 "HgN/A
7:50 PM70 °FPartly sunny.9 mph57%29.92 "HgN/A
7:20 PM70 °FPartly sunny.7 mph60%29.92 "HgN/A
6:20 PM72 °FScattered clouds.10 mph53%29.92 "HgN/A
5:50 PM73 °FScattered clouds.9 mph50%29.95 "HgN/A
5:20 PM72 °FScattered clouds.9 mph50%29.95 "HgN/A
4:50 PM73 °FScattered clouds.7 mph47%29.95 "HgN/A
4:20 PM73 °FScattered clouds.7 mph50%29.98 "HgN/A
3:50 PM72 °FScattered clouds.7 mph57%29.98 "HgN/A
3:20 PM72 °FScattered clouds.7 mph53%29.98 "HgN/A
2:50 PM70 °FScattered clouds.5 mph60%30.01 "HgN/A
2:20 PM70 °FPartly sunny.7 mph60%30.01 "HgN/A
1:50 PM72 °FPartly sunny.8 mph57%30.01 "HgN/A
1:20 PM70 °FScattered clouds.7 mph60%30.01 "HgN/A
12:50 PM68 °FScattered clouds.5 mph69%30.04 "HgN/A
12:20 PM68 °FBroken clouds.6 mph69%30.04 "HgN/A
11:50 AM68 °FBroken clouds.6 mph64%30.04 "HgN/A
11:20 AM66 °FPartly sunny.6 mph68%30.07 "HgN/A
10:50 AM66 °FPartly sunny.8 mph68%30.07 "HgN/A
10:20 AM64 °FPartly sunny.9 mph73%30.07 "HgN/A
9:50 AM64 °FBroken clouds.8 mph73%30.07 "HgN/A
9:20 AM64 °FPartly sunny.9 mph73%30.07 "HgN/A
8:50 AM63 °FPartly sunny.7 mph73%30.07 "HgN/A
8:20 AM61 °FPartly sunny.6 mph88%30.07 "HgN/A
7:50 AM59 °FSunny.1 mph94%30.09 "Hg10 mi
7:20 AM59 °FSunny.2 mph94%30.07 "Hg10 mi
6:50 AM57 °FPassing clouds.5 mph100%30.07 "HgN/A
6:20 AM55 °FPassing clouds.3 mph100%30.07 "HgN/A
5:50 AM55 °FClear.2 mph100%30.09 "Hg10 mi
5:20 AM55 °FClear.3 mph100%30.09 "Hg10 mi
Weather by CustomWeather, © 2016

See weather overviewHow to use our weather pages